Regional Weather Roundup
Issued by NWS

Home | Current Version | Previous Version | Text Only | Print | Product List | Glossary Off
Versions: 1 2 3 4 5 6 7 8 9 10 11 12 13 14 15 16 17 18 19 20 21 22 23 24 25 26 27 28 29 30 31 32 33 34 35 36 37 38 39 40 41 42 43 44 45 46 47 48 49 50

000
ASUS43 KLSX 290207
RWRMO

WEATHER SUMMARY FOR MISSOURI
NATIONAL WEATHER SERVICE SPRINGFIELD MO
900 PM CDT FRI APR 28 2017

NOTE: "FAIR" INDICATES FEW OR NO CLOUDS BELOW 12,000 FEET WITH NO
       SIGNIFICANT WEATHER AND/OR OBSTRUCTIONS TO VISIBILITY.
       CURRENT SKY AND/OR WEATHER CONDITIONS ARE NOT AVAILABLE FOR
       CHILLICOTHE AND FARMINGTON.

MOZ001>031-035>038-043-044-053-054-290300-
...NORTHERN AND WESTERN MISSOURI...

CITY           SKY/WX    TMP DP  RH WIND       PRES   REMARKS
KANSAS CTY INT DRZL/FOG  46  46 100 N12       29.90R VSB 1/2
KANSAS C DTWN  CLOUDY    50  48  93 N12       29.89R
LEE`S SUMMIT   CLOUDY    52  51  97 N13       29.88R
ST JOSEPH      CLOUDY    44  44 100 N10       29.94R
CHILLICOTHE      N/A     46  44  93 N7        29.92R
KIRKSVILLE     CLOUDY    45  31  58 N8        29.90R HAZE

$$
MOZ066>068-077>081-088>096-101>105-290300-
...SOUTHWEST MISSOURI...

CITY           SKY/WX    TMP DP  RH WIND       PRES   REMARKS
SPRINGFIELD    CLOUDY    64  61  90 E5        29.80R
JOPLIN         MOCLDY    65  61  87 VRB5      29.79R
BRANSON        MOCLDY    63  63 100 E3        29.80R FOG

$$
MOZ032>034-039>042-045>050-055>058-069>072-290300-
...CENTRAL MISSOURI...

CITY           SKY/WX    TMP DP  RH WIND       PRES   REMARKS
COLUMBIA       CLOUDY    58  58 100 CALM      29.84R FOG
JEFFERSON CITY CLOUDY    62  58  86 CALM      29.84R
ROLLA          CLOUDY    60  60 100 E6        29.82R
SEDALIA        CLOUDY    60  60 100 CALM      29.85R
WHITEMAN AFB   CLOUDY    60  60 100 N6        29.83R
OSAGE BEACH    CLOUDY    61  61 100 CALM      29.84R FOG

$$
MOZ051-052-059>065-290300-
...EAST CENTRAL MISSOURI...

CITY           SKY/WX    TMP DP  RH WIND       PRES   REMARKS
ST LOUIS INTL  CLOUDY    60  56  86 E5        29.85R
SPIRIT OF STL  CLOUDY    58  58 100 E3        29.84R
ST CHARLES     CLOUDY    59  58  96 NE3       29.84S

$$
MOZ072>076-082>087-097>100-106>115-290300-
...SOUTH CENTRAL AND SOUTHEAST MISSOURI...

CITY           SKY/WX    TMP DP  RH WIND       PRES   REMARKS
CAPE GIRARDEAU TSTM      68  67  96 N5        29.78S FOG
FARMINGTON     CLOUDY    65  64  97 CALM      29.84R
POPLAR BLUFF   LGT RAIN  67  67 100 CALM      29.78R
WEST PLAINS    CLOUDY    65  63  93 CALM      29.81R FOG

$$



USA.gov is the U.S. government's official web portal to all federal, state and local government web resources and services.